Weather History for St. Joseph, MO

Change the Weather History Date:

Tuesday, September 17, 2013

  Actual Average Record
Temperature  
Mean Temperature 70 °F 66 °F  
Max Temperature 79 °F 79 °F 102 °F (1953)
Min Temperature 61 °F 53 °F 38 °F (1980)
Degree Days  
Heating Degree Days 0 2  
Month to date heating degree days 7 20  
Since 1 July heating degree days 9 25  
Cooling Degree Days 5 3  
Month to date cooling degree days 142 88  
Year to date cooling degree days 1212 1165  
Growing Degree Days 19 (Base 50)    
Moisture  
Dew Point 63 °F    
Average Humidity 82    
Maximum Humidity 97    
Minimum Humidity 67    
Precipitation  
Precipitation 0.27 in 0.10 in 4.24 in (1978)
Month to date precipitation 2.29 2.17  
Year to date precipitation 21.96 28.47  
Sea Level Pressure  
Sea Level Pressure 30.07 in    
Wind  
Wind Speed 9 mph (SSE)    
Max Wind Speed 18 mph    
Max Gust Speed 23 mph    
Visibility 8 miles    
Events Rain , Thunderstorm    
T = Trace of Precipitation, MM = Missing Value Source: NWS Daily Summary

Daily Weather History Graph

Daily Weather History Graph

Search for Another Location

Airport:

Trip Planner

Search our weather history database for the weather conditions in past years. The results will help you decide how hot, cold, wet, or windy it might be!

Date:

Astronomy

Sep. 17, 2013 Rise Set
Actual Time 7:02 AM CDT 7:24 PM CDT
Civil Twilight 6:35 AM CDT 7:51 PM CDT
Nautical Twilight 6:04 AM CDT 8:23 PM CDT
Astronomical Twilight 5:31 AM CDT 8:55 PM CDT
Moon 6:12 PM CDT (9/17) 4:58 AM CDT (9/17)
Length of Visible Light 13h 15m
Length of Day
12h 21m
Waxing Gibbous, 96% of the Moon is Illuminated
Sep 17
Waxing Gibbous
Sep 19
Full
Sep 26
Last Quarter
Oct 4
New
Oct 11
First Quarter

Hourly Weather History & Observations

Time (CDT) Temp. Dew Point Humidity Pressure Visibility Wind Dir Wind Speed Gust Speed Precip Events Conditions
12:53 AM 62.1 °F 57.9 °F 86% 30.19 in 10.0 mi SE 3.5 mph - N/A   Overcast
1:53 AM 62.1 °F 57.9 °F 86% 30.19 in 10.0 mi East 4.6 mph - N/A   Overcast
2:53 AM 62.1 °F 59.0 °F 90% 30.18 in 10.0 mi SE 6.9 mph - N/A   Overcast
3:53 AM 62.1 °F 59.0 °F 90% 30.15 in 9.0 mi ESE 5.8 mph - N/A   Overcast
4:36 AM 62.6 °F 59.0 °F 88% 30.15 in 9.0 mi SE 8.1 mph - N/A   Overcast
4:53 AM 62.1 °F 59.0 °F 90% 30.14 in 8.0 mi SE 8.1 mph - N/A   Overcast
5:46 AM 62.6 °F 59.0 °F 88% 30.14 in 8.0 mi SE 6.9 mph - N/A   Overcast
5:53 AM 62.1 °F 59.0 °F 90% 30.13 in 8.0 mi ESE 5.8 mph - N/A   Overcast
6:53 AM 61.0 °F 59.0 °F 93% 30.14 in 6.0 mi ESE 6.9 mph - N/A   Overcast
7:31 AM 60.8 °F 59.0 °F 94% 30.15 in 2.0 mi SE 6.9 mph - 0.05 in Rain , Thunderstorm Thunderstorms and Rain
7:36 AM 60.8 °F 59.0 °F 94% 30.15 in 0.8 mi ESE 5.8 mph - 0.16 in Rain , Thunderstorm Heavy Thunderstorms and Rain
7:44 AM 60.8 °F 59.0 °F 94% 30.14 in 1.0 mi ESE 4.6 mph - 0.23 in Rain Rain
7:51 AM 60.8 °F 59.0 °F 94% 30.15 in 3.0 mi SE 4.6 mph - 0.23 in Rain Light Rain
7:53 AM 61.0 °F 59.0 °F 93% 30.14 in 4.0 mi SE 4.6 mph - 0.23 in Rain Light Rain
8:53 AM 62.1 °F 60.1 °F 93% 30.15 in 4.0 mi SE 4.6 mph - 0.01 in   Overcast
9:53 AM 62.1 °F 61.0 °F 96% 30.13 in 4.0 mi SE 4.6 mph - 0.01 in Rain Light Rain
10:53 AM 64.0 °F 62.1 °F 93% 30.12 in 7.0 mi SE 5.8 mph - 0.02 in   Overcast
11:53 AM 66.0 °F 64.0 °F 93% 30.11 in 7.0 mi SE 6.9 mph - N/A   Overcast
12:53 PM 70.0 °F 66.0 °F 87% 30.08 in 9.0 mi SSE 11.5 mph - 0.00 in   Overcast
1:40 PM 73.4 °F 66.2 °F 78% 30.07 in 10.0 mi South 15.0 mph - N/A   Overcast
1:53 PM 73.9 °F 66.9 °F 79% 30.05 in 10.0 mi South 12.7 mph - N/A   Mostly Cloudy
2:09 PM 73.4 °F 66.2 °F 78% 30.05 in 10.0 mi SSE 12.7 mph - N/A   Scattered Clouds
2:53 PM 78.1 °F 66.9 °F 68% 30.01 in 10.0 mi SSE 13.8 mph - N/A   Clear
3:53 PM 78.1 °F 66.9 °F 68% 29.99 in 10.0 mi South 13.8 mph - N/A   Overcast
4:01 PM 78.8 °F 66.2 °F 65% 30.00 in 10.0 mi South 16.1 mph - N/A   Overcast
4:53 PM 77.0 °F 66.9 °F 71% 29.97 in 10.0 mi South 18.4 mph 23.0 mph N/A   Mostly Cloudy
5:05 PM 77.0 °F 66.2 °F 69% 29.98 in 10.0 mi South 13.8 mph 23.0 mph N/A   Mostly Cloudy
5:22 PM 77.0 °F 66.2 °F 69% 29.98 in 10.0 mi South 11.5 mph 23.0 mph N/A   Scattered Clouds
5:53 PM 75.9 °F 64.9 °F 69% 29.96 in 10.0 mi South 15.0 mph 21.9 mph N/A   Partly Cloudy
6:53 PM 73.0 °F 64.9 °F 76% 29.95 in 10.0 mi South 10.4 mph - N/A   Clear
7:53 PM 71.1 °F 64.9 °F 81% 29.95 in 9.0 mi SSE 11.5 mph - N/A   Scattered Clouds
8:09 PM 71.6 °F 66.2 °F 83% 29.96 in 9.0 mi SSE 12.7 mph - N/A   Mostly Cloudy
8:53 PM 69.1 °F 64.9 °F 87% 29.96 in 7.0 mi SSE 11.5 mph - N/A   Mostly Cloudy
9:06 PM 69.8 °F 64.4 °F 83% 29.98 in 7.0 mi SSE 11.5 mph - N/A   Scattered Clouds
9:53 PM 68.0 °F 64.9 °F 90% 29.98 in 7.0 mi SSE 9.2 mph - N/A   Scattered Clouds
10:53 PM 66.9 °F 64.9 °F 93% 29.98 in 6.0 mi South 8.1 mph - N/A   Partly Cloudy
11:53 PM 66.0 °F 64.0 °F 93% 29.97 in 5.0 mi SSE 5.8 mph - N/A   Clear